Weather History for Glens Falls, NY

Change the Weather History Date:

Thursday, October 4, 2012

  Actual Average Record
Temperature  
Mean Temperature 60 °F 51 °F  
Max Temperature 67 °F 63 °F 80 °F (1951)
Min Temperature 53 °F 39 °F 27 °F (1948)
Degree Days  
Heating Degree Days 5 14  
Month to date heating degree days 24 54  
Since 1 July heating degree days 253 339  
Cooling Degree Days 0 0  
Month to date cooling degree days 0 0  
Year to date cooling degree days 533 351  
Growing Degree Days 12 (Base 50)    
Moisture  
Dew Point 63 °F    
Average Humidity 100    
Maximum Humidity 100    
Minimum Humidity 100    
Precipitation  
Precipitation 0.03 in 0.12 in 0.78 in (1987)
Month to date precipitation 0.26 0.47  
Year to date precipitation 26.29 29.66  
Sea Level Pressure  
Sea Level Pressure 30.08 in    
Wind  
Wind Speed 2 mph (South)    
Max Wind Speed 10 mph    
Max Gust Speed 13 mph    
Visibility 3 miles    
Events Fog , Rain    
T = Trace of Precipitation, MM = Missing Value Source: NWS Daily Summary

Daily Weather History Graph

Daily Weather History Graph

Search for Another Location

Airport:

Trip Planner

Search our weather history database for the weather conditions in past years. The results will help you decide how hot, cold, wet, or windy it might be!

Date:

Astronomy

Oct. 04, 2012 Rise Set
Actual Time 6:55 AM EDT 6:29 PM EDT
Civil Twilight 6:27 AM EDT 6:57 PM EDT
Nautical Twilight 5:54 AM EDT 7:30 PM EDT
Astronomical Twilight 5:20 AM EDT 8:04 PM EDT
Moon 8:55 PM EDT (10/4) 11:18 AM EDT (10/4)
Length of Visible Light 12h 30m
Length of Day
11h 33m
Waning Gibbous, 82% of the Moon is Illuminated
Oct 4
Waning Gibbous
Oct 8
Last Quarter
Oct 15
New
Oct 21
First Quarter
Oct 29
Full

Hourly Weather History & Observations

Time (EDT) Temp. Dew Point Humidity Pressure Visibility Wind Dir Wind Speed Gust Speed Precip Events Conditions
12:53 AM 62.1 °F 62.1 °F 100% 30.12 in 4.0 mi Calm Calm - N/A   Overcast
1:53 AM 62.1 °F 62.1 °F 100% 30.12 in 5.0 mi Calm Calm - N/A   Overcast
2:53 AM 62.1 °F 62.1 °F 100% 30.12 in 4.0 mi Calm Calm - N/A   Overcast
3:30 AM 62.6 °F 62.6 °F 100% 30.12 in 4.0 mi Calm Calm - N/A   Overcast
3:37 AM 62.6 °F 62.6 °F 100% 30.12 in 4.0 mi Calm Calm - N/A   Overcast
3:51 AM 62.6 °F 62.6 °F 100% 30.12 in 4.0 mi Calm Calm - N/A   Overcast
3:53 AM 62.1 °F 62.1 °F 100% 30.12 in 4.0 mi Calm Calm - N/A   Overcast
4:29 AM 62.6 °F 62.6 °F 100% 30.12 in 4.0 mi Calm Calm - N/A   Overcast
4:36 AM 62.6 °F 62.6 °F 100% 30.12 in 3.0 mi Calm Calm - N/A   Overcast
4:49 AM 62.6 °F 62.6 °F 100% 30.12 in 4.0 mi Calm Calm - N/A   Overcast
4:53 AM 62.1 °F 62.1 °F 100% 30.12 in 4.0 mi Calm Calm - N/A   Overcast
5:00 AM 62.6 °F 62.6 °F 100% 30.12 in 4.0 mi Calm Calm - N/A   Overcast
5:34 AM 62.6 °F 62.6 °F 100% 30.12 in 1.8 mi Calm Calm - 0.00 in   Overcast
5:44 AM 62.6 °F 62.6 °F 100% 30.12 in 0.8 mi Calm Calm - 0.00 in   Mist
5:53 AM 62.1 °F 62.1 °F 100% 30.12 in 0.5 mi Calm Calm - 0.00 in Fog Fog
6:01 AM 62.6 °F 62.6 °F 100% 30.12 in 0.2 mi Calm Calm - N/A Fog Fog
6:53 AM 62.1 °F 62.1 °F 100% 30.13 in 0.2 mi Calm Calm - N/A Fog Fog
7:53 AM 62.1 °F 62.1 °F 100% 30.13 in 0.2 mi Calm Calm - N/A Fog Fog
8:41 AM 62.6 °F 62.6 °F 100% 30.12 in 1.0 mi SE 3.5 mph - N/A   Mist
8:44 AM 62.6 °F 62.6 °F 100% 30.12 in 2.0 mi SE 3.5 mph - N/A   Overcast
8:53 AM 63.0 °F 63.0 °F 100% 30.12 in 4.0 mi South 3.5 mph - N/A   Overcast
9:33 AM 62.6 °F 62.6 °F 100% 30.12 in 2.0 mi SW 4.6 mph - N/A   Overcast
9:44 AM 62.6 °F 62.6 °F 100% 30.11 in 1.8 mi Calm Calm - N/A   Overcast
9:53 AM 63.0 °F 63.0 °F 100% 30.12 in 2.0 mi South 3.5 mph - N/A   Overcast
10:38 AM 64.4 °F 64.4 °F 100% 30.12 in 3.0 mi Calm Calm - 0.01 in Rain Light Rain
10:53 AM 64.0 °F 64.0 °F 100% 30.13 in 2.5 mi SE 4.6 mph - 0.01 in Rain Light Rain
11:53 AM 64.9 °F 64.9 °F 100% 30.09 in 2.5 mi SSE 6.9 mph - 0.00 in   Overcast
12:10 PM 64.4 °F 64.4 °F 100% 30.06 in 3.0 mi SSE 3.5 mph - 0.00 in Rain Light Rain
12:37 PM 66.2 °F 64.4 °F 94% 30.09 in 4.0 mi West 5.8 mph - 0.00 in   Overcast
12:53 PM 64.9 °F 64.9 °F 100% 30.08 in 4.0 mi West 4.6 mph - 0.00 in   Overcast
1:53 PM 66.0 °F 64.9 °F 96% 30.07 in 8.0 mi Calm Calm - 0.00 in Rain Light Rain
2:44 PM 66.2 °F 64.4 °F 94% 30.07 in 3.0 mi South 4.6 mph - 0.02 in Rain Rain
2:53 PM 66.0 °F 64.9 °F 96% 30.07 in 5.0 mi South 4.6 mph - 0.02 in Rain Light Rain
3:30 PM 66.2 °F 66.2 °F 100% 30.06 in 5.0 mi SSE 4.6 mph - 0.00 in   Overcast
3:53 PM 66.9 °F 66.0 °F 97% 30.05 in 6.0 mi South 6.9 mph - 0.00 in   Mostly Cloudy
4:30 PM 66.2 °F 66.2 °F 100% 30.04 in 6.0 mi South 6.9 mph - N/A   Scattered Clouds
4:53 PM 66.9 °F 66.0 °F 97% 30.05 in 5.0 mi South 6.9 mph - N/A   Mostly Cloudy
5:08 PM 66.2 °F 66.2 °F 100% 30.04 in 5.0 mi SSE 6.9 mph - N/A   Mostly Cloudy
5:43 PM 66.2 °F 66.2 °F 100% 30.03 in 6.0 mi South 8.1 mph - N/A   Mostly Cloudy
5:53 PM 66.0 °F 66.0 °F 100% 30.04 in 6.0 mi South 6.9 mph - N/A   Mostly Cloudy
6:13 PM 66.2 °F 64.4 °F 94% 30.03 in 5.0 mi SSW 8.1 mph - N/A   Mostly Cloudy
6:30 PM 64.4 °F 64.4 °F 100% 30.03 in 5.0 mi South 5.8 mph - N/A   Scattered Clouds
6:47 PM 64.4 °F 64.4 °F 100% 30.03 in 5.0 mi South 3.5 mph - N/A   Mostly Cloudy
6:53 PM 64.0 °F 64.0 °F 100% 30.04 in 5.0 mi South 3.5 mph - N/A   Mostly Cloudy
7:53 PM 64.0 °F 64.0 °F 100% 30.04 in 4.0 mi SSW 3.5 mph - N/A   Mostly Cloudy
8:02 PM 64.4 °F 64.4 °F 100% 30.04 in 4.0 mi Calm Calm - N/A   Scattered Clouds
8:10 PM 64.4 °F 64.4 °F 100% 30.04 in 1.5 mi Calm Calm - N/A   Partly Cloudy
8:16 PM 62.6 °F 62.6 °F 100% 30.04 in 0.2 mi NNW 3.5 mph - N/A Fog Fog
8:33 PM 60.8 °F 60.8 °F 100% 30.04 in 0.5 mi Calm Calm - N/A Fog Fog
8:47 PM 62.6 °F 62.6 °F 100% 30.04 in 1.2 mi West 4.6 mph - N/A   Partly Cloudy
8:53 PM 60.8 °F 60.8 °F 100% 30.04 in 1.5 mi WSW 3.5 mph - N/A   Partly Cloudy
9:06 PM 60.8 °F 60.8 °F 100% 30.04 in 2.5 mi WSW 4.6 mph - N/A   Clear
9:14 PM 60.8 °F 60.8 °F 100% 30.05 in 4.0 mi West 3.5 mph - N/A   Clear
9:22 PM 57.2 °F 57.2 °F 100% 30.05 in 1.5 mi Calm Calm - N/A   Clear
9:24 PM 57.2 °F 57.2 °F 100% 30.05 in 0.8 mi East 3.5 mph - N/A   Mist
9:34 PM 57.2 °F 57.2 °F 100% 30.05 in 0.2 mi Calm Calm - N/A Fog Fog
9:53 PM 57.0 °F 57.0 °F 100% 30.06 in 0.2 mi Calm Calm - N/A Fog Fog
10:53 PM 57.9 °F 57.9 °F 100% 30.05 in 0.2 mi Calm Calm - 0.01 in Fog Fog
11:53 PM 55.0 °F 55.0 °F 100% 30.04 in 0.2 mi Calm Calm - N/A Fog Fog